Lid_Strength_Index
6 6 6 6 7 7 5 4 3 2 1 1 1 1 0 0 0 2 5 4 5 8 8 7 6 8 7 7 10 8 9 9 9 13 13 13 14 13 14 13 14 15 16 17 16 18 19 9 10 13 11 10 9 9
6 7 7 7 7 7 6 4 3 2 2 2 2 1 1 0 0 1 5 5 4 7 8 6 6 5 5 5 7 6 8 8 8 11 11 11 13 12 13 16 12 15 12 14 14 14 10 9 9 9 9 10 9 10
6 7 7 7 7 7 7 6 4 3 2 2 1 1 1 1 0 1 4 5 5 8 8 8 8 6 5 5 3 8 8 6 7 6 9 10 13 11 15 14 13 11 9 12 12 10 10 10 8 9 9 10 9 10
6 7 7 7 7 7 7 7 4 3 2 2 2 1 1 1 1 1 4 4 5 7 10 9 4 5 3 3 4 4 4 4 4 5 8 10 12 8 12 11 12 12 10 11 12 10 10 9 9 9 9 9 9 9
5 6 7 7 7 6 7 7 6 4 3 2 1 1 1 1 2 3 6 5 4 8 10 9 6 4 3 3 4 3 5 6 6 8 9 11 10 9 9 10 11 9 11 13 13 11 11 11 9 9 10 10 10 9
5 6 6 6 7 6 6 7 7 5 3 2 2 2 2 2 2 7 10 8 5 5 8 11 8 7 5 4 4 4 4 6 6 8 8 8 8 9 12 13 9 8 8 8 10 9 9 9 8 8 9 9 9 9
5 5 6 6 6 6 6 6 6 6 5 3 2 2 1 1 7 9 10 6 4 5 9 11 11 7 5 5 5 5 4 6 6 7 8 10 10 9 11 14 9 8 9 9 9 8 10 9 10 8 8 8 8 8
5 5 5 5 6 6 6 6 6 6 6 4 3 1 1 2 4 8 6 3 4 8 7 12 12 9 6 8 8 6 7 7 8 8 9 10 9 9 12 9 7 7 8 9 9 10 11 10 9 8 8 9 9 9
5 5 5 6 6 6 6 6 6 6 6 6 4 2 5 7 8 7 2 3 7 9 11 10 13 13 7 8 7 9 9 10 8 9 9 9 12 13 10 8 7 7 8 9 9 10 10 10 9 8 8 8 9 9
4 5 5 5 6 6 6 6 6 6 7 6 8 8 10 7 2 3 7 9 9 9 7 10 10 12 9 8 9 11 10 11 12 10 8 10 11 7 7 6 7 6 6 8 11 11 11 11 10 9 9 9 9 9
4 4 4 5 5 5 5 6 6 6 8 11 12 12 8 4 7 8 10 11 11 12 9 9 9 11 7 10 11 10 12 11 14 12 11 12 12 9 6 6 5 6 6 7 8 9 10 10 11 11 10 9 8 9
4 4 4 5 5 5 5 5 6 10 12 11 10 9 7 9 10 11 14 12 11 12 10 11 10 10 8 8 11 10 12 12 15 10 12 14 10 7 6 6 6 5 5 6 7 8 8 9 10 10 10 9 8 8
4 4 4 5 5 5 5 5 6 7 7 7 9 10 13 13 16 13 15 13 13 10 10 10 11 10 9 9 11 13 16 18 13 15 14 11 8 7 7 6 6 5 5 5 5 6 7 7 8 8 9 8 8 8
4 4 4 4 4 5 5 5 5 7 9 10 12 15 15 16 15 14 14 12 10 10 10 10 11 11 12 13 12 16 14 13 19 19 14 10 9 8 7 6 6 6 6 6 5 5 6 6 7 7 7 7 7 7
4 4 4 5 5 5 5 5 5 8 10 11 13 17 14 12 13 12 11 11 10 9 10 11 11 11 14 13 11 13 14 20 14 14 11 10 8 8 8 7 7 6 6 6 5 5 6 6 6 6 6 6 6 7
4 5 7 5 5 4 5 6 8 7 8 9 11 14 13 12 13 13 12 12 10 11 10 11 12 13 13 14 16 13 14 19 13 10 8 7 7 8 8 7 6 6 5 5 5 5 5 5 6 6 5 5 5 5
4 8 6 5 5 4 5 8 7 6 8 10 12 11 12 12 12 12 12 12 11 11 13 12 12 13 13 16 18 11 14 11 9 7 6 7 7 8 7 7 6 6 6 5 5 6 5 4 5 6 6 5 4 5
7 7 6 5 5 6 8 7 7 7 9 9 12 12 12 11 11 11 11 11 11 12 12 12 12 14 18 17 18 14 10 9 8 8 7 7 6 7 6 7 6 6 6 6 6 6 6 5 5 5 4 4 5 4
6 6 5 5 5 8 10 8 7 10 9 10 10 11 11 12 11 10 10 10 10 10 10 12 13 15 15 12 11 10 9 9 8 8 7 6 6 6 6 6 6 6 6 6 6 5 5 5 5 4 4 4 4 4
5 5 5 5 5 8 9 9 6 9 11 10 10 11 11 11 11 11 11 10 11 11 12 13 13 12 11 10 9 9 8 7 8 8 8 6 6 6 6 7 6 6 6 6 5 6 5 5 5 4 4 5 4 4
6 7 6 7 7 8 8 9 9 9 9 10 10 10 11 11 12 12 12 10 12 12 12 11 10 10 9 9 8 8 7 7 8 8 7 7 6 6 6 6 6 6 7 6 5 5 5 5 5 4 5 5 4 4
7 6 7 6 9 9 10 9 10 9 9 10 11 10 12 14 12 12 11 11 11 10 10 10 9 9 9 9 7 7 7 6 7 6 6 7 7 7 7 7 7 6 6 6 6 5 4 5 5 4 5 6 6 4
6 7 9 9 10 9 10 7 9 9 12 12 12 12 12 13 11 10 12 11 10 9 9 9 9 9 8 7 6 6 6 7 7 7 6 6 6 6 6 6 6 6 6 6 5 5 4 7 5 5 5 5 6 6
6 9 10 11 11 13 10 11 11 12 13 13 14 12 12 12 11 13 13 12 10 10 10 10 9 8 8 7 8 8 7 6 6 6 6 6 6 6 6 6 6 5 6 6 5 4 4 4 5 4 5 5 5 6
11 13 13 15 12 12 12 12 12 14 12 12 12 12 13 11 14 13 13 12 12 12 11 10 10 8 8 8 8 7 5 4 7 8 6 6 6 6 6 6 6 5 5 5 5 5 5 4 5 4 5 6 6 6
16 15 16 14 13 13 12 13 12 12 12 12 12 11 13 14 14 13 13 12 12 12 11 10 10 10 10 8 8 6 6 6 6 7 7 7 7 7 7 7 7 6 5 5 5 5 5 5 5 5 6 6 8 7
18 18 14 11 12 11 13 11 12 13 12 13 14 13 14 14 14 13 12 11 10 10 9 9 8 8 7 8 7 6 7 6 6 6 5 6 6 5 6 7 7 6 5 4 3 4 5 6 6 6 6 7 7 7
14 13 15 14 13 13 13 13 13 13 12 11 12 13 13 13 14 11 11 10 9 10 10 10 10 9 9 8 7 6 6 5 5 6 6 6 6 6 6 5 4 7 4 5 4 4 5 6 6 6 7 7 8 7
12 13 12 14 13 14 13 13 13 11 9 9 12 12 10 10 9 9 10 9 8 9 9 8 8 8 8 8 8 8 7 7 7 8 8 9 9 8 7 6 4 3 3 5 8 7 6 7 7 7 7 7 7 7
12 11 13 13 14 14 12 11 11 9 8 9 9 9 10 9 8 7 8 8 9 9 7 6 6 7 8 8 9 9 9 8 7 7 8 9 8 7 7 7 6 4 3 4 5 6 8 7 8 7 7 8 8 9
10 10 12 13 13 12 10 9 9 10 10 11 11 12 12 11 9 9 8 8 7 6 6 6 7 7 7 8 8 8 9 10 9 9 9 8 8 8 7 7 6 4 4 5 6 6 7 8 9 10 9 9 10 10
11 11 12 14 14 11 9 12 12 11 11 13 13 12 11 11 11 10 8 7 7 7 8 7 7 8 7 8 8 9 9 9 9 9 9 9 9 9 8 6 5 5 6 6 7 8 9 9 10 10 10 10 10 11
13 12 12 11 12 11 10 11 13 13 13 14 12 11 11 11 10 8 6 6 7 7 7 6 6 6 7 8 9 10 10 10 11 11 11 11 12 10 8 7 6 6 7 7 8 8 9 9 10 10 10 11 11 12